Погода в Посёлке Бирюлинского Зверосовхоза

Россия / Республика Татарстан     55°58′38″N   49°23′01″E
темп.,
°C
ветер,
м/с
пор.,
м/с
влажн.,
%
обл.,
%
осадки,
мм/ч
давл.,
гПа
погр.,
м
11 мая, вт
вт1100:00+15ссв4885100 0.1 1022198
03:00+15св3678100 0.1 1023130
06:00+15св488396 0.0 1025231
09:00+20всв4459100 0.0 1026563
12:00+23всв344599 0.0 10261248
15:00+24в333994 0.0 10262301
18:00+22вюв225375 0.0 102621
21:00+17всв477296 0.1 1028119
12 мая, ср
ср1200:00+15всв348427 0.0 102862
03:00+14св348525 0.0 102858
06:00+16всв36773 0.0 1028170
09:00+21в46484 0.0 1028737
12:00+24юв45424 0.0 10281733
15:00+25ююв353654 0.0 10272294
18:00+23юв114917 0.0 102713
21:00+18юв335735 0.0 102736
13 мая, чт
чт1300:00+15юв33565 0.0 102735
03:00+14юв22677 0.0 102713
06:00+17вюв246646 0.0 1027118
09:00+21юв474515 0.0 1027751
12:00+23юв673728 0.0 10261478
15:00+24ююв564094 0.0 10251411
18:00+22юв345649 0.0 102586
21:00+17юв126779 0.0 102411
14 мая, пт
пт1400:00+17юв3863100 0.0 1024160
03:00+15юв377171 0.1 1024114
06:00+17юв39698 0.3 1024239
09:00+22ююв694734 0.3 1023569
12:00+25ю71039100 0.0 10221168
15:00+25ю71143100 0.0 10211375
18:00+21ю496091 0.0 1021248
21:00+17ю356641 0.0 102172
15 мая, сб
сб1500:00+16ю3368100 0.0 102142
03:00+15ю346813 0.0 102149
06:00+17ю38665 0.1 1021195
09:00+22ю684732 0.1 1021455
12:00+25ю793987 0.0 1020747
15:00+27ююз69397 0.0 10191138
18:00
21:00+18ю495946 0.0 1018137